User: anonymous   Login
Location: Newark
(48.0000°N, 67.0000°E)
Time: 09:16:07
(UTC+00:00)
Language:

A-11 Canister half - Orbit

View from above orbital plane
View from above orbital plane
View from above satellite
View from above satellite

Ground track
Ground track

The orbit data is extracted from the following two-line orbital elements,

1    51U 60009C   20222.87330894 -.00000039 +00000-0 +44334-3 0  9995
2    51 047.2111 182.1520 0108746 321.6592 037.6504 12.18276558670606
Epoch (UTC): 09 August 2020 20:57:33
Eccentricity: 0.0108746
inclination: 47.2111°
perigee height: 1513 km
apogee height: 1687 km
right ascension of ascending node: 182.1520°
argument of perigee: 321.6592°
revolutions per day: 12.18276558
mean anomaly at epoch: 37.6504°
orbit number at epoch: 67060

The dashed part of the orbit path shows where the satellite is in the earth's shadow,  

DLR